Wind_Speed
10 11 10 9 7 5 7 9 10 12 9 8 10 10 10 8 10 11 11 8 9 10 6 10 17 17 13 5 2 2 3 0 2 1 4 8 4 1 1 7 6 5 4 6 25
12 10 10 10 9 8 6 8 9 11 12 8 9 9 8 7 7 8 9 8 13 9 9 6 11 11 5 3 3 3 2 5 1 0 1 7 1 3 2 4 4 6 6 11 26
12 12 9 9 10 9 8 7 7 9 12 10 6 6 8 5 6 5 11 11 9 12 8 6 18 8 8 9 7 4 4 3 1 1 4 6 3 2 5 2 9 10 12 21 28
12 12 12 9 9 10 9 8 8 6 10 11 7 4 4 7 5 2 8 11 11 11 10 10 11 13 8 6 12 5 5 4 2 2 3 3 6 2 8 3 5 8 11 22 31
12 11 13 11 8 9 9 8 8 7 6 9 7 5 2 5 3 1 1 7 10 11 12 13 16 9 5 10 10 5 6 7 6 3 4 4 3 5 8 10 5 11 14 22 29
13 13 14 12 10 8 8 8 8 8 6 7 8 6 4 3 4 4 1 5 8 11 13 14 12 9 8 6 15 11 12 9 5 2 3 2 3 1 4 10 7 12 16 21 26
12 11 6 8 10 8 7 8 9 8 6 5 7 7 7 10 2 5 5 4 5 8 10 11 8 10 7 3 6 16 4 3 4 4 2 2 3 4 6 6 10 15 18 21 22
14 9 7 7 10 10 6 8 8 8 6 5 6 6 5 9 13 3 6 8 3 4 7 9 12 10 7 7 4 3 5 6 2 6 2 5 7 2 4 9 13 16 18 20 22
14 11 10 8 8 8 5 7 8 7 4 4 5 4 4 6 9 13 6 3 5 4 6 9 11 5 8 5 3 2 5 6 4 1 3 3 5 1 3 10 12 16 19 21 21
11 12 12 9 7 8 4 5 5 4 3 4 4 3 6 3 5 11 9 7 4 9 7 6 4 3 3 4 7 5 3 3 5 6 3 4 6 2 1 7 11 14 18 21 19
11 10 11 7 7 8 5 3 4 3 7 3 4 2 4 4 4 7 14 11 5 5 3 4 2 7 4 4 3 4 4 5 1 1 3 9 6 6 3 4 9 14 17 17 19
11 9 7 6 7 7 7 5 3 1 2 10 4 5 2 3 1 6 16 9 5 3 3 3 7 4 3 3 4 3 2 2 0 0 3 2 6 4 4 4 5 10 14 14 14
10 7 6 5 7 10 10 10 4 2 1 2 13 4 4 7 2 2 14 11 3 5 5 4 1 9 6 3 4 5 3 5 1 2 2 4 5 4 3 3 6 4 5 8 10
9 7 7 6 6 9 7 13 4 1 4 3 4 5 8 6 2 9 8 8 4 9 4 5 5 7 5 6 5 2 7 5 7 5 5 4 4 5 5 4 6 8 11 11 11
8 10 7 6 3 7 4 13 3 1 3 2 3 5 9 5 2 1 11 14 5 5 5 5 7 7 5 4 6 2 3 5 4 3 2 3 3 2 8 5 4 8 16 16 16
9 9 7 4 3 5 8 11 3 5 4 2 4 3 7 7 1 2 4 5 3 3 2 3 1 0 4 3 6 7 5 6 5 3 3 7 6 4 5 7 6 10 20 23 24
10 12 7 3 3 7 11 10 4 4 3 2 1 5 6 4 2 1 5 6 4 5 5 3 2 3 1 4 3 9 5 1 2 3 3 4 8 1 2 7 16 20 23 29 29
13 9 5 3 7 8 11 3 4 3 4 2 1 3 5 6 4 3 4 8 1 1 4 5 4 6 3 2 3 9 7 3 5 4 2 4 6 2 1 14 23 31 35 35 36
9 7 5 5 4 3 6 3 6 5 3 1 1 3 3 3 2 3 4 4 6 6 3 4 2 1 0 1 1 5 5 2 6 2 2 3 2 3 3 14 19 24 29 32 29
8 7 6 3 6 4 3 1 1 2 3 3 5 3 5 7 6 6 6 3 6 4 2 2 2 2 1 2 8 2 10 4 1 5 4 3 3 4 6 15 13 16 19 24 22
7 3 4 2 4 1 2 1 2 3 6 4 3 1 4 5 5 5 4 0 3 6 6 3 1 0 1 2 4 2 3 4 4 2 4 3 4 0 4 18 17 17 21 23 21
3 2 6 5 1 2 2 1 3 3 3 0 2 2 3 3 6 3 8 3 6 8 8 3 3 3 2 3 2 2 5 3 4 4 3 1 3 6 4 16 21 20 24 24 23
3 3 4 6 2 0 1 2 1 2 1 1 1 1 2 2 4 4 5 1 7 7 5 5 1 3 1 2 1 3 3 3 3 2 4 4 3 5 12 18 20 27 27 26 26
3 2 2 2 3 5 3 2 2 1 0 1 2 3 2 2 1 3 4 3 5 4 9 4 2 3 3 2 3 3 6 9 4 2 3 4 4 3 6 15 20 23 29 32 29
1 0 3 1 2 2 1 3 2 1 3 4 0 4 3 2 2 2 3 2 1 5 4 3 3 3 2 3 1 2 6 12 9 2 5 3 7 9 9 14 24 30 33 31 28
3 4 5 3 2 3 3 2 3 1 1 2 3 5 3 2 2 3 2 5 4 1 3 0 3 2 4 3 3 2 6 5 6 3 5 2 2 5 14 17 24 31 33 31 27
4 6 4 2 1 3 3 4 3 5 2 2 4 2 6 4 6 5 4 7 3 5 3 3 5 2 3 3 3 5 11 13 7 6 6 5 6 15 9 20 27 30 32 30 25
Wind_Direction
287 283 254 250 254 266 255 256 248 239 245 244 244 238 231 236 226 222 227 230 231 254 276 208 232 246 265 275 287 333 58 213 254 84 298 357 18 108 128 138 155 172 154 170 165
281 285 282 252 251 248 262 255 253 244 241 253 252 249 247 241 232 236 222 226 232 236 241 215 202 206 145 129 133 147 122 219 254 132 293 324 318 185 162 146 183 180 176 167 172
297 272 283 279 252 252 256 263 256 245 240 242 260 250 259 238 238 248 234 225 215 226 227 217 229 261 191 198 185 183 184 206 220 34 341 330 21 181 153 232 230 206 182 174 178
303 281 257 276 264 257 259 257 262 262 242 237 250 239 241 180 189 240 220 218 218 214 202 182 172 172 171 184 177 175 196 202 213 344 342 333 336 268 215 227 288 230 206 181 185
294 294 273 252 272 257 260 262 253 269 261 230 235 225 207 202 235 327 256 208 203 201 192 179 176 160 185 181 157 182 181 198 218 325 354 328 317 259 258 230 272 201 197 188 192
283 283 283 232 254 269 260 260 260 255 274 234 220 213 206 227 284 242 148 176 189 182 182 181 194 179 161 199 196 198 199 206 204 248 336 36 323 256 305 220 222 196 199 197 196
270 276 286 231 247 260 257 256 254 256 256 245 220 212 212 225 255 235 199 165 184 180 173 193 191 185 157 160 197 189 169 221 194 202 190 25 325 230 284 223 202 197 201 201 200
262 263 247 261 246 251 254 252 248 249 250 242 211 210 227 234 233 261 206 210 201 181 167 192 200 187 150 149 69 130 144 196 226 182 186 122 265 257 277 225 211 204 202 202 205
256 258 244 266 257 238 240 247 244 237 232 227 201 192 236 219 213 220 219 211 212 196 181 172 173 161 138 149 142 243 172 202 176 194 137 151 253 287 292 225 230 215 211 206 207
256 252 244 269 240 223 231 239 228 206 188 154 171 194 250 203 197 200 192 150 139 165 151 160 172 154 150 171 216 156 152 161 177 192 185 175 247 183 10 220 242 238 222 215 213
257 245 241 252 222 221 210 186 150 156 185 203 185 154 24 168 250 202 193 192 141 143 167 184 198 207 160 211 88 129 152 169 108 45 186 201 203 227 241 235 228 245 238 226 220
224 232 228 230 214 216 197 184 176 176 251 213 189 210 209 133 327 209 192 187 181 165 141 127 230 161 148 202 144 129 139 150 22 151 163 226 248 249 245 257 241 246 251 243 225
204 219 215 209 208 211 203 181 174 198 200 218 217 188 207 203 192 220 186 185 164 178 186 223 334 159 151 169 190 167 186 195 268 148 55 142 266 205 179 121 98 127 211 223 227
197 198 173 180 201 223 226 183 139 339 72 265 199 210 191 168 239 233 217 198 175 192 186 237 207 169 168 181 158 188 194 159 139 166 219 172 264 246 170 111 66 92 119 130 153
184 173 178 178 253 176 169 170 144 176 43 251 174 177 179 175 132 185 214 208 190 174 163 204 176 186 186 180 156 128 97 135 169 150 306 196 225 248 145 165 139 100 117 126 133
161 171 169 168 160 129 146 163 149 47 263 166 140 168 173 188 124 122 167 194 181 190 136 178 10 255 181 124 146 136 85 62 38 95 240 185 207 200 186 181 139 119 115 122 123
146 136 144 167 145 148 146 150 43 130 290 184 154 180 202 162 178 228 164 179 182 186 182 154 83 329 272 112 68 169 149 128 165 197 242 341 192 279 168 170 156 141 124 122 123
139 130 131 173 144 154 166 78 210 232 209 14 273 182 179 150 194 189 163 192 212 110 162 153 180 179 173 143 157 179 186 180 189 191 172 341 226 233 296 141 145 139 133 127 122
149 130 119 110 164 178 165 165 203 203 177 144 177 164 196 149 183 175 205 198 160 187 180 153 167 44 354 304 169 161 189 31 110 69 89 211 284 297 114 130 141 140 136 134 132
146 134 105 122 178 159 86 167 228 193 146 207 190 173 166 172 191 181 184 166 158 145 120 138 136 342 46 165 29 220 145 88 73 154 216 218 264 221 166 162 158 153 140 141 137
155 142 125 160 176 97 133 250 284 229 186 213 199 241 226 163 179 167 182 353 118 131 88 121 122 197 276 209 167 110 141 76 122 150 170 170 246 92 215 181 170 153 143 144 139
196 61 167 186 19 31 126 251 326 352 15 252 280 235 224 173 169 175 196 194 157 149 138 206 129 138 97 180 296 306 155 192 155 208 244 211 268 334 227 169 163 143 147 149 143
184 133 145 190 140 215 250 249 245 329 357 360 276 271 180 225 175 154 148 239 172 157 145 178 177 89 78 105 327 228 156 113 36 89 195 147 251 15 98 118 141 140 147 150 146
201 57 94 123 100 140 147 273 331 315 114 36 329 287 216 179 40 148 131 215 192 136 157 144 110 155 174 156 118 178 175 157 115 172 191 224 167 183 157 136 138 143 148 149 149
241 210 143 209 330 89 97 159 122 304 338 26 3 10 257 153 121 141 120 129 223 160 103 127 149 127 132 165 144 136 150 180 184 243 191 215 192 194 179 156 154 151 151 151 154
238 155 116 85 134 140 357 248 168 263 271 3 79 355 100 86 334 171 159 172 191 159 105 157 131 96 2 2 121 153 182 135 207 261 298 287 195 143 153 155 149 155 159 162 164
209 168 131 58 358 83 220 190 187 158 125 109 135 81 46 31 50 67 101 96 106 172 118 134 142 106 231 20 107 330 207 189 174 192 169 201 208 149 151 172 170 163 168 171 170
Height
1521 1520 1520 1520 1520 1520 1521 1521 1522 1522 1523 1522 1523 1524 1525 1526 1527 1528 1529 1530 1533 1533 1533 1536 1540 1543 1547 1551 1554 1556 1562 1565 1557 1556 1555 1552 1552 1552 1553 1554 1555 1556 1556 1557 1560
1519 1519 1518 1519 1519 1519 1519 1519 1521 1521 1521 1521 1521 1522 1523 1525 1525 1526 1528 1527 1527 1530 1532 1533 1540 1543 1547 1550 1552 1556 1563 1559 1555 1554 1554 1552 1552 1552 1554 1554 1555 1555 1556 1557 1560
1517 1517 1518 1517 1517 1517 1517 1518 1519 1519 1520 1521 1521 1522 1522 1523 1525 1524 1525 1526 1528 1530 1532 1532 1532 1535 1546 1549 1552 1555 1558 1554 1554 1554 1553 1552 1551 1552 1553 1555 1552 1552 1554 1556 1560
1515 1515 1516 1516 1516 1516 1516 1517 1517 1518 1519 1519 1520 1520 1521 1523 1525 1522 1523 1525 1526 1529 1531 1532 1536 1543 1544 1547 1548 1553 1552 1553 1553 1554 1553 1552 1551 1552 1552 1552 1551 1551 1554 1555 1558
1513 1513 1513 1515 1515 1515 1515 1516 1516 1517 1518 1517 1519 1520 1522 1522 1522 1521 1522 1522 1525 1528 1530 1533 1536 1539 1542 1542 1546 1546 1549 1552 1553 1552 1552 1553 1551 1552 1549 1551 1550 1550 1552 1554 1557
1511 1512 1511 1512 1513 1514 1515 1515 1515 1515 1516 1516 1518 1519 1520 1523 1522 1522 1523 1522 1524 1527 1528 1532 1535 1536 1538 1540 1540 1542 1547 1550 1551 1550 1552 1551 1551 1551 1548 1548 1549 1550 1551 1554 1556
1509 1509 1509 1510 1512 1513 1513 1514 1514 1515 1515 1516 1516 1518 1520 1522 1522 1522 1522 1524 1525 1525 1528 1529 1532 1535 1536 1540 1539 1541 1550 1550 1549 1550 1551 1550 1551 1550 1549 1548 1548 1549 1551 1554 1556
1507 1508 1509 1509 1510 1511 1512 1513 1513 1513 1514 1515 1517 1519 1518 1517 1519 1521 1521 1524 1526 1525 1526 1530 1533 1534 1534 1540 1541 1541 1545 1550 1549 1549 1548 1549 1557 1550 1548 1547 1547 1549 1551 1553 1556
1504 1506 1507 1508 1508 1509 1510 1511 1511 1512 1514 1514 1516 1517 1517 1516 1517 1520 1522 1522 1523 1525 1528 1530 1532 1533 1536 1538 1545 1542 1546 1548 1552 1548 1547 1549 1551 1548 1547 1547 1547 1549 1550 1551 1555
1500 1503 1505 1506 1506 1508 1509 1509 1510 1511 1512 1514 1516 1519 1516 1515 1514 1516 1521 1522 1523 1526 1529 1529 1530 1530 1532 1534 1538 1542 1543 1546 1546 1547 1549 1550 1548 1546 1546 1546 1546 1548 1550 1551 1554
1499 1501 1502 1504 1505 1506 1508 1509 1512 1513 1511 1512 1513 1514 1513 1514 1515 1517 1520 1522 1525 1526 1525 1526 1529 1526 1528 1530 1534 1535 1539 1542 1546 1546 1546 1547 1544 1541 1544 1545 1545 1546 1548 1552 1554
1497 1499 1501 1502 1504 1505 1507 1507 1508 1511 1509 1510 1511 1512 1514 1515 1515 1515 1519 1523 1524 1524 1525 1527 1527 1527 1528 1532 1535 1537 1539 1542 1548 1547 1548 1547 1544 1542 1542 1543 1542 1544 1546 1551 1554
1497 1498 1500 1502 1503 1504 1505 1507 1508 1508 1509 1509 1510 1511 1514 1515 1514 1516 1518 1519 1522 1525 1526 1528 1527 1524 1530 1534 1536 1537 1540 1542 1543 1547 1548 1549 1546 1543 1541 1541 1542 1541 1542 1547 1551
1496 1498 1500 1501 1505 1503 1504 1506 1507 1508 1518 1512 1509 1510 1512 1512 1513 1513 1515 1518 1520 1523 1525 1524 1523 1525 1528 1533 1534 1538 1536 1538 1545 1545 1546 1543 1546 1541 1537 1540 1543 1543 1542 1545 1548
1496 1498 1500 1502 1502 1502 1505 1506 1507 1509 1542 1510 1508 1508 1509 1512 1514 1513 1514 1516 1517 1520 1524 1522 1522 1526 1527 1526 1529 1534 1535 1537 1541 1544 1544 1546 1550 1533 1536 1542 1545 1545 1543 1544 1546
1497 1499 1500 1503 1503 1504 1505 1507 1509 1523 1537 1509 1507 1508 1509 1510 1511 1513 1515 1517 1518 1520 1521 1522 1521 1522 1521 1524 1527 1533 1538 1542 1547 1547 1549 1540 1540 1535 1538 1534 1543 1546 1546 1545 1546
1498 1500 1502 1504 1504 1505 1506 1508 1522 1535 1515 1511 1508 1507 1508 1510 1512 1513 1514 1516 1515 1521 1519 1522 1524 1523 1523 1526 1527 1532 1535 1545 1549 1548 1539 1547 1540 1528 1529 1532 1535 1542 1545 1547 1550
1500 1500 1503 1504 1505 1505 1507 1510 1518 1531 1518 1511 1510 1508 1510 1509 1511 1512 1513 1515 1518 1517 1519 1517 1526 1524 1524 1522 1524 1529 1529 1535 1536 1547 1546 1550 1534 1528 1530 1530 1536 1539 1542 1546 1549
1502 1501 1503 1504 1505 1505 1508 1507 1520 1521 1511 1511 1510 1507 1510 1509 1511 1512 1513 1512 1514 1517 1517 1515 1518 1523 1523 1522 1522 1527 1530 1537 1544 1566 1553 1541 1534 1531 1534 1535 1540 1543 1543 1546 1548
1503 1502 1503 1505 1505 1506 1508 1507 1512 1509 1510 1511 1512 1512 1510 1509 1512 1510 1511 1511 1512 1513 1517 1520 1523 1525 1522 1520 1523 1521 1529 1537 1543 1547 1549 1541 1541 1529 1536 1536 1540 1544 1545 1546 1549
1503 1504 1504 1505 1505 1506 1516 1510 1509 1508 1508 1508 1513 1510 1512 1505 1508 1508 1509 1511 1509 1514 1516 1520 1520 1527 1523 1522 1522 1527 1527 1533 1537 1539 1539 1544 1530 1526 1528 1528 1534 1539 1543 1545 1548
1503 1505 1504 1505 1507 1512 1516 1511 1510 1508 1508 1507 1507 1507 1506 1504 1506 1509 1508 1509 1509 1511 1514 1518 1521 1520 1522 1527 1527 1524 1524 1525 1523 1541 1543 1533 1526 1526 1525 1529 1535 1539 1542 1545 1548
1502 1503 1504 1505 1516 1513 1511 1510 1510 1509 1508 1507 1506 1506 1506 1506 1505 1504 1506 1509 1508 1510 1511 1516 1521 1527 1525 1528 1530 1526 1524 1529 1523 1529 1534 1534 1526 1528 1528 1529 1536 1538 1544 1547 1550
1503 1505 1503 1504 1506 1508 1512 1513 1512 1509 1509 1508 1508 1506 1504 1504 1505 1503 1506 1509 1508 1509 1511 1513 1522 1521 1516 1516 1520 1521 1525 1527 1527 1531 1529 1526 1528 1532 1530 1530 1537 1542 1543 1544 1549
1502 1503 1502 1511 1509 1508 1507 1508 1509 1511 1508 1509 1508 1507 1506 1503 1505 1503 1505 1507 1509 1509 1510 1513 1525 1523 1524 1523 1520 1519 1518 1523 1521 1521 1523 1516 1523 1522 1527 1530 1534 1537 1541 1545 1548
1501 1501 1503 1507 1508 1508 1510 1511 1510 1513 1512 1508 1508 1507 1504 1505 1506 1506 1502 1505 1503 1508 1510 1513 1522 1523 1528 1518 1517 1518 1524 1520 1523 1526 1521 1519 1517 1518 1525 1533 1534 1535 1539 1543 1548
1499 1499 1499 1509 1510 1511 1510 1510 1508 1509 1511 1509 1509 1508 1508 1509 1507 1505 1506 1505 1505 1506 1509 1512 1521 1529 1534 1523 1523 1532 1518 1517 1519 1519 1515 1518 1512 1518 1526 1529 1529 1532 1538 1543 1547